Regional Weather Roundup
Issued by NWS Sterling, VA

Home | Current Version | Previous Version | Text Only | Print | Product List | Glossary Off
Versions: 1 2 3 4 5 6 7 8 9 10 11 12 13 14 15 16 17 18 19 20 21 22 23 24 25 26 27 28 29 30 31 32 33 34 35 36 37 38 39 40 41 42 43 44 45 46 47 48 49 50

000
ASUS41 KLWX 201710
RWRLWX

REGIONAL WEATHER ROUNDUP
NATIONAL WEATHER SERVICE BALTIMORE MD/WASHINGTON DC
100 PM EDT MON APR 20 2015

Note: "FAIR" indicates few or no clouds below 12,000 feet
with no significant weather and/or obstructions to visibility.
 TC=TEMPERATURE CELSIUS

 * =Non NWS site. Station does not report precipitation (e.g. rain,
    snow, etc.), thunder, or fog.

DCZ001-MDZ009-015-VAZ040>042-051-053>054-201800-
WASHINGTON METRO

CITY           SKY/WX    TMP DP  RH WIND       PRES   REMARKS
WASHINGTON NAT CLOUDY    76  62  62 S7        29.63F
DULLES         PTSUNNY   73  58  59 S7G18     29.63F
FT BELVOIR     MOSUNNY   76  60  57 VRB7      29.62F
QUANTICO       PTSUNNY   72  62  71 S12       29.63F
COLLEGE PARK*  MOSUNNY   75  61  60 S5        29.62F
LEESBURG*      MOSUNNY   75  61  60 S14G21    29.63F
MANASSAS*      PTSUNNY   75  59  57 SW13G20   29.63F
GAITHERSBURG*  SUNNY     73  59  60 SW6       29.66F

$$

MDZ006>007-011-014-201800-
BALTIMORE METRO

CITY           SKY/WX    TMP DP  RH WIND       PRES   REMARKS
BWI AIRPORT    PTSUNNY   74  59  59 S7        29.62F
MD SCIENCE CTR   N/A     76  58  53 MISG      29.65F
MARTIN STATE   PTSUNNY   72  66  83 SE10      29.65F
ANNAPOLIS      SUNNY     62  58  86 SE13      29.63F
FORT MEADE*    MOSUNNY   73  57  56 S10       29.64F

$$

MDZ012-015-019>023-201800-
MARYLAND EASTERN SHORE

CITY           SKY/WX    TMP DP  RH WIND       PRES   REMARKS
OCEAN CITY     PTSUNNY   62  59  90 S10G17    29.69S
SALISBURY      CLOUDY    72  64  76 SW9       29.67F
BAY BRIDGE AP*   N/A    N/A N/A N/A S9        29.64F
CAMBRIDGE*     PTSUNNY   73  63  68 S8        29.65F
EASTON*        MOSUNNY   75  66  73 SW12G21   29.68F

$$

MDZ017>025-201800-
SOUTHERN MARYLAND

CITY           SKY/WX    TMP DP  RH WIND       PRES   REMARKS
PATUXENT RIVER PTSUNNY   75  63  66 SW9G18    29.64F
ST INIGOES     PTSUNNY   73  63  70 S8        29.65F
LEONARDTOWN*   MOSUNNY   73  61  64 S12G18    29.66F

$$

MDZ003>005-201800-
NORTH CENTRAL MARYLAND

CITY           SKY/WX    TMP DP  RH WIND       PRES   REMARKS
FREDERICK*     SUNNY     73  57  56 S6        29.64F
HAGERSTOWN APT SUNNY     65  55  70 VRB3      29.61F
WESTMINSTER*   SUNNY     70  61  73 S3        29.63F

$$

MDZ501>502-201800-
WESTERN MARYLAND

CITY           SKY/WX    TMP DP  RH WIND       PRES   REMARKS
OAKLAND*       PTSUNNY   64  52  63 SW15G21   29.59F
CUMBERLAND*    MOSUNNY   63  54  72 SW3       29.63F

$$

VAZ025>031-201800-
SHENANDOAH VALLEY

CITY           SKY/WX    TMP DP  RH WIND       PRES   REMARKS
WINCHESTER*    MOSUNNY   72  54  53 S7        29.61F
FRONT ROYAL*   FAIR      73  59  60 W5        29.60F
LURAY*         FAIR      73  57  56 S8        29.61F
NEW MARKET*    NOT AVBL
STAUNTON*      PTSUNNY   72  54  54 SW16G24   29.64F
WAYNESBORO*    PTSUNNY   70  57  63 SE5       29.64F

$$

WVZ021-048>050-054>055-201800-
EASTERN WEST VIRGINIA PANHANDLE

CITY           SKY/WX    TMP DP  RH WIND       PRES   REMARKS
MARTINSBURG    NOT AVBL
PETERSBURG*    NOT AVBL

$$

VAZ036>039-050-201800-
CENTRAL FOOTHILLS

CITY           SKY/WX    TMP DP  RH WIND       PRES   REMARKS
CHARLOTTESVILL PTSUNNY   75  59  57 S14G21    29.62F
CULPEPER*      PTSUNNY   77  57  50 S10       29.63F
ORANGE*        PTSUNNY   75  59  57 SE12G17   29.65F
GORDONSVILLE*  PTSUNNY   74  60  61 S12G23    29.62F
WARRENTON*     FAIR      76  62  61 S10       29.63F

$$

VAZ055>057-201800-
NORTH AND CENTRAL PIEDMONT

CITY           SKY/WX    TMP DP  RH WIND       PRES   REMARKS
FREDERICKSBRG* PTSUNNY   78  60  54 SW13G20   29.63F
STAFFORD*      PTSUNNY   76  57  52 SW9G17    29.67F

$$

NCZ024-NYZ072-PAZ021-071-VAZ022-071-201800-
OTHER REGIONAL OBSERVATIONS

CITY           SKY/WX    TMP DP  RH WIND       PRES   REMARKS
NEW YORK CITY  LGT RAIN  56  55  97 SE6       29.75F FOG
PHILADELPHIA   PTSUNNY   66  63  90 SW7       29.65F
PITTSBURGH     PTSUNNY   70  52  52 S21G32    29.47F
ROANOKE        PTSUNNY   72  61  68 VRB3      29.65F
RICHMOND       PTSUNNY   75  63  66 S12G17    29.67F
RALEIGH        PTSUNNY   77  63  61 SW18G24   29.72F

$$

ANZ530>537-201800-
MARINE OBSERVATIONS

STATION/POSITION TIME  TEMP    WIND        PRES
                       AIR SEA DIR/SP/G
                 (UTC) (F)     (DEG/KT/KT) (MB)
THOMAS PT LIGHT  1700   64 55  150/ 12/ 13 1004.0F
BALT KEY BRIDGE  1600   66      80/  5/  7 1003.7F
COVE POINT       1600   71     260/  7/ 11 1004.5F
LEWISETTA        1600   72 63              1004.5F
SOLOMONS ISLAND  1600      57                N/A
PINEY POINT      1600          250/  4/  7   N/A

$$




USA.gov is the U.S. government's official web portal to all federal, state and local government web resources and services.